W4GAP Weather Reports


time (UTC)temp
C
wind
direction
speed
KPH
gust
KPH
rain 1hr
cm
rain 24hr
cm
rain mn
cm
humidity
%
barometer
mb
20260504180259 24 329 3.2 3.2 0.00 0.00 0.00 39 1013.2
20260504175757 23 312 0.0 0.0 0.00 0.00 0.00 41 1013.3
20260504175253 23 266 4.8 4.8 0.00 0.00 0.00 41 1013.5
20260504174751 23 306 0.0 3.2 0.00 0.00 0.00 42 1013.7
20260504174249 24 316 0.0 0.0 0.00 0.00 0.00 41 1013.4
20260504173745 23 284 0.0 0.0 0.00 0.00 0.00 42 1013.7
20260504173242 23 302 0.0 0.0 0.00 0.00 0.00 43 1013.8
20260504172739 23 312 1.6 4.8 0.00 0.00 0.00 43 1014.0
20260504172236 23 303 1.6 1.6 0.00 0.00 0.00 42 1013.9
20260504171732 23 317 3.2 3.2 0.00 0.00 0.00 42 1014.1
20260504171229 23 306 0.0 0.0 0.00 0.00 0.00 42 1014.1
20260504170726 23 284 0.0 1.6 0.00 0.00 0.00 41 1014.0
20260504170223 23 308 0.0 3.2 0.00 0.00 0.00 41 1014.0
20260504160142 21 307 0.0 1.6 0.00 0.00 0.00 44 1014.7
20260504151109 19 298 0.0 0.0 0.00 0.00 0.00 48 1015.2
20260504150607 18 303 1.6 1.6 0.00 0.00 0.00 47 1015.2
20260504150104 18 313 1.6 3.2 0.00 0.00 0.00 48 1015.0
20260504141032 17 302 1.6 1.6 0.00 0.00 0.00 57 1015.2
20260504140529 16 295 0.0 1.6 0.00 0.00 0.00 58 1015.3
20260504130453 13 302 0.0 0.0 0.00 0.00 0.00 70 1015.5
20260504110340 7 302 0.0 0.0 0.00 0.00 0.00 90 1015.0
20260504100258 7 302 0.0 0.0 0.00 0.00 0.00 88 1014.7
20260504081651 9 302 0.0 0.0 0.00 0.00 0.00 81 1014.5
20260504081147 9 302 0.0 0.0 0.00 0.00 0.00 81 1014.4
20260504080644 9 302 0.0 0.0 0.00 0.00 0.00 81 1014.7
20260504080140 9 302 0.0 0.0 0.00 0.00 0.00 81 1014.5
20260504070108 10 304 0.0 0.0 0.00 0.00 0.00 74 1015.1
20260504050456 12 296 0.0 0.0 0.00 0.00 0.00 63 1015.2
20260504045954 12 295 0.0 0.0 0.00 0.00 0.00 64 1015.2
20260504045449 12 296 0.0 0.0 0.00 0.00 0.00 62 1015.1
20260504044946 12 295 0.0 0.0 0.00 0.00 0.00 63 1015.1
20260504044443 12 295 0.0 0.0 0.00 0.00 0.00 61 1015.1
20260504043941 12 295 0.0 0.0 0.00 0.00 0.00 63 1015.2
20260504043437 12 295 0.0 0.0 0.00 0.00 0.00 64 1015.3
20260504042935 12 295 0.0 0.0 0.00 0.00 0.00 64 1015.3
20260504042431 12 296 0.0 0.0 0.00 0.00 0.00 63 1015.3
20260504041928 12 296 0.0 0.0 0.00 0.00 0.00 61 1015.3
20260504041424 12 296 0.0 0.0 0.00 0.00 0.00 62 1015.3
20260504040920 12 296 0.0 0.0 0.00 0.00 0.00 62 1015.4
20260504040418 12 296 0.0 0.0 0.00 0.00 0.00 62 1015.1
20260504035914 12 296 0.0 0.0 0.00 0.00 0.00 67 1015.5
20260504035412 12 296 0.0 0.0 0.00 0.00 0.00 65 1015.4
20260504034908 12 295 0.0 0.0 0.00 0.00 0.00 66 1015.4
20260504034406 12 295 0.0 0.0 0.00 0.00 0.00 66 1015.4
20260504033903 12 295 0.0 0.0 0.00 0.00 0.00 65 1015.3
20260504033401 12 295 0.0 0.0 0.00 0.00 0.00 65 1015.5
20260504032857 12 295 0.0 0.0 0.00 0.00 0.00 65 1015.5
20260504032354 12 295 0.0 0.0 0.00 0.00 0.00 66 1015.4
20260504031850 12 295 0.0 0.0 0.00 0.00 0.00 65 1015.4
20260504031348 12 295 0.0 0.0 0.00 0.00 0.00 64 1015.6
20260504030844 12 296 0.0 0.0 0.00 0.00 0.00 67 1015.4
20260504030342 13 296 0.0 0.0 0.00 0.00 0.00 65 1015.6
20260504025837 13 296 0.0 0.0 0.00 0.00 0.00 64 1015.5
20260504025335 13 296 0.0 0.0 0.00 0.00 0.00 63 1015.4
20260504024831 13 296 0.0 0.0 0.00 0.00 0.00 62 1015.3
20260504024328 13 296 0.0 0.0 0.00 0.00 0.00 64 1015.4
20260504023824 13 296 0.0 0.0 0.00 0.00 0.00 65 1015.2
20260504023321 13 296 0.0 0.0 0.00 0.00 0.00 63 1015.2
20260504022817 13 296 0.0 0.0 0.00 0.00 0.00 62 1015.1
20260504022314 13 296 0.0 0.0 0.00 0.00 0.00 61 1015.4
20260504021810 13 295 0.0 0.0 0.00 0.00 0.00 61 1015.1
20260504021308 13 295 0.0 0.0 0.00 0.00 0.00 60 1015.1
20260504020805 13 295 0.0 0.0 0.00 0.00 0.00 59 1015.0
20260504020302 13 295 0.0 0.0 0.00 0.00 0.00 59 1015.1
20260504015757 13 295 0.0 0.0 0.00 0.00 0.00 58 1014.8
20260504015254 13 295 0.0 0.0 0.00 0.00 0.00 58 1015.0
20260504014750 14 295 0.0 0.0 0.00 0.00 0.00 58 1014.8
20260504014246 14 294 0.0 0.0 0.00 0.00 0.00 58 1014.7
20260504013744 14 297 0.0 0.0 0.00 0.00 0.00 59 1014.4
20260504013242 14 297 0.0 0.0 0.00 0.00 0.00 56 1014.6
20260504012738 15 297 0.0 0.0 0.00 0.00 0.00 55 1014.5
20260504012236 15 297 0.0 0.0 0.00 0.00 0.00 55 1014.5
20260504011732 15 297 0.0 0.0 0.00 0.00 0.00 55 1014.4
20260504011229 15 297 0.0 0.0 0.00 0.00 0.00 54 1014.5
20260504010725 15 297 0.0 0.0 0.00 0.00 0.00 53 1014.4
20260504010221 15 297 0.0 0.0 0.00 0.00 0.00 54 1014.5
20260504005718 15 297 0.0 0.0 0.00 0.00 0.00 53 1014.4
20260504005215 16 297 0.0 0.0 0.00 0.00 0.00 52 1014.4
20260504004713 16 297 0.0 0.0 0.00 0.00 0.00 51 1014.3
20260504004210 16 297 0.0 0.0 0.00 0.00 0.00 50 1014.1
20260504003706 16 297 0.0 0.0 0.00 0.00 0.00 49 1014.2
20260504003203 16 297 0.0 0.0 0.00 0.00 0.00 47 1014.4
20260504002700 16 296 0.0 0.0 0.00 0.00 0.00 47 1014.0
20260504002157 17 300 0.0 0.0 0.00 0.00 0.00 46 1014.1
20260504001655 17 300 0.0 0.0 0.00 0.00 0.00 45 1014.1
20260504001151 17 302 0.0 0.0 0.00 0.00 0.00 46 1014.0
20260504000648 17 300 0.0 0.0 0.00 0.00 0.00 44 1013.8
20260504000145 17 301 0.0 0.0 0.00 0.00 0.00 45 1013.9
20260503235643 17 297 0.0 0.0 0.00 0.00 0.00 45 1014.1
20260503235140 18 297 0.0 0.0 0.00 0.00 0.00 43 1013.9
20260503234638 18 296 0.0 0.0 0.00 0.00 0.00 42 1013.7
20260503234136 18 304 0.0 0.0 0.00 0.00 0.00 43 1013.7
20260503233632 18 305 0.0 1.6 0.00 0.00 0.00 43 1013.8
20260503233128 18 298 0.0 0.0 0.00 0.00 0.00 42 1013.9
20260503232625 18 300 0.0 0.0 0.00 0.00 0.00 42 1013.9
20260503232123 18 304 0.0 3.2 0.00 0.00 0.00 42 1013.8
20260503231620 18 305 0.0 0.0 0.00 0.00 0.00 42 1014.2
20260503231117 18 303 0.0 0.0 0.00 0.00 0.00 42 1014.0
20260503230614 18 302 0.0 0.0 0.00 0.00 0.00 40 1014.0
20260503230111 18 304 0.0 1.6 0.00 0.00 0.00 39 1013.9
20260503225609 19 301 1.6 3.2 0.00 0.00 0.00 39 1014.1
20260503225108 19 308 0.0 0.0 0.00 0.00 0.00 41 1013.9
20260503224606 19 305 0.0 0.0 0.00 0.00 0.00 44 1013.9
20260503224104 19 300 0.0 0.0 0.00 0.00 0.00 42 1014.3
20260503223601 19 305 1.6 4.8 0.00 0.00 0.00 41 1014.1
20260503223056 19 311 0.0 3.2 0.00 0.00 0.00 41 1014.2
20260503222555 19 298 0.0 3.2 0.00 0.00 0.00 40 1014.0
20260503222052 19 305 0.0 1.6 0.00 0.00 0.00 39 1014.1
20260503221550 19 309 0.0 4.8 0.00 0.00 0.00 39 1014.0
20260503221048 19 324 4.8 4.8 0.00 0.00 0.00 40 1013.9
20260503220543 19 296 0.0 1.6 0.00 0.00 0.00 40 1014.0
20260503220041 19 318 0.0 1.6 0.00 0.00 0.00 39 1014.1
20260503215538 19 314 3.2 3.2 0.00 0.00 0.00 38 1014.2
20260503215035 19 304 1.6 3.2 0.00 0.00 0.00 36 1014.0
20260503214533 19 311 3.2 4.8 0.00 0.00 0.00 39 1014.1
20260503214029 20 312 4.8 4.8 0.00 0.00 0.00 37 1014.1
20260503213528 20 309 3.2 4.8 0.00 0.00 0.00 37 1014.1
20260503213024 20 287 1.6 3.2 0.00 0.00 0.00 37 1014.3
20260503212522 20 301 0.0 1.6 0.00 0.00 0.00 33 1014.3
20260503212019 20 314 1.6 3.2 0.00 0.00 0.00 36 1014.4
20260503211516 20 302 0.0 1.6 0.00 0.00 0.00 39 1014.3
20260503211011 20 300 1.6 1.6 0.00 0.00 0.00 38 1014.3
20260503210508 20 310 1.6 3.2 0.00 0.00 0.00 39 1014.5
20260503210004 20 299 0.0 0.0 0.00 0.00 0.00 40 1014.3
20260503205500 20 304 0.0 4.8 0.00 0.00 0.00 40 1014.6
20260503204956 20 307 3.2 3.2 0.00 0.00 0.00 40 1014.6
20260503204454 20 304 1.6 3.2 0.00 0.00 0.00 39 1014.5
20260503203950 20 306 0.0 0.0 0.00 0.00 0.00 40 1014.6
20260503203448 20 290 1.6 1.6 0.00 0.00 0.00 38 1014.6
20260503202944 20 331 3.2 3.2 0.00 0.00 0.00 36 1014.8
20260503202443 20 305 0.0 0.0 0.00 0.00 0.00 36 1014.9
20260503201941 20 306 0.0 0.0 0.00 0.00 0.00 38 1014.9
20260503201438 20 312 0.0 3.2 0.00 0.00 0.00 37 1015.2
20260503200936 20 309 0.0 3.2 0.00 0.00 0.00 37 1014.9
20260503200432 20 298 0.0 1.6 0.00 0.00 0.00 38 1015.1
20260503195928 20 333 1.6 3.2 0.00 0.00 0.00 38 1015.4
20260503195426 20 335 4.8 4.8 0.00 0.00 0.00 37 1015.5
20260503194922 20 297 0.0 3.2 0.00 0.00 0.00 37 1015.5
20260503194419 20 298 1.6 1.6 0.00 0.00 0.00 40 1015.4
20260503193915 20 316 0.0 1.6 0.00 0.00 0.00 37 1015.4
20260503193410 20 299 1.6 9.7 0.00 0.00 0.00 38 1015.6
20260503192906 19 304 0.0 1.6 0.00 0.00 0.00 39 1015.8
20260503192403 20 283 1.6 4.8 0.00 0.00 0.00 37 1015.8
20260503191859 20 303 0.0 3.2 0.00 0.00 0.00 37 1015.8
20260503191356 20 311 0.0 4.8 0.00 0.00 0.00 36 1016.0
20260503190852 20 308 0.0 3.2 0.00 0.00 0.00 37 1016.0
20260503190350 20 308 3.2 4.8 0.00 0.00 0.00 36 1016.1
20260503185846 20 282 3.2 3.2 0.00 0.00 0.00 39 1016.2
20260503185342 20 297 0.0 3.2 0.00 0.00 0.00 38 1016.3
20260503184837 20 315 1.6 3.2 0.00 0.00 0.00 40 1016.2
20260503184333 20 334 4.8 4.8 0.00 0.00 0.00 39 1016.2
20260503183829 20 314 0.0 0.0 0.00 0.00 0.00 41 1016.3
20260503183326 20 305 1.6 3.2 0.00 0.00 0.00 40 1016.6
20260503182824 20 288 4.8 4.8 0.00 0.00 0.00 36 1016.4
20260503182323 20 296 0.0 3.2 0.00 0.00 0.00 38 1016.7
20260503181820 20 299 0.0 1.6 0.00 0.00 0.00 36 1016.6
20260503181317 20 311 1.6 4.8 0.00 0.00 0.00 36 1016.5
20260503180813 20 309 0.0 3.2 0.00 0.00 0.00 39 1016.6